Wilmington, DE

10:53 PM EST on November 19, 2019 (GMT -0500)
New Castle County

Weather History for KILG - August, 2019

Change the Weather History Date:

Friday, August 9, 2019

  Actual Average Record
Temperature  
Mean Temperature 78 °F 76 °F  
Max Temperature 88 °F 85 °F 102 °F (1896)
Min Temperature 68 °F 67 °F 54 °F (1964)
Degree Days  
Heating Degree Days 0 0  
Month to date heating degree days 0 0  
Since 1 June heating degree days 5 15  
Since 1 July heating degree days 0 0  
Cooling Degree Days 13 11  
Month to date cooling degree days 128 101  
Year to date cooling degree days 990 778  
Since 1 June cooling degree days 858 699  
Growing Degree Days 28 (Base 50)    
Moisture  
Dew Point 63 °F    
Average Humidity 67    
Maximum Humidity 93    
Minimum Humidity 40    
Precipitation  
Precipitation 0.00 in 0.12 in 2.61 in (1967)
Month to date precipitation 0.91 1.06  
Year to date precipitation 34.37 26.57  
Snow  
Snow 0.00 in 0.00 in 0.00 in (1894)
Month to date snowfall 0.0 0.0  
Since 1 June snowfall 0.0 0.0  
Since 1 July snowfall 0.0 0.0  
Snow Depth 0.00 in    
Sea Level Pressure  
Sea Level Pressure 29.78 in    
Wind  
Wind Speed 7 mph (WNW)    
Max Wind Speed 21 mph    
Max Gust Speed 26 mph    
Visibility 10 miles    
Events      
T = Trace of Precipitation, MM = Missing Value Source: NWS Daily Summary

Daily Weather History Graph

Daily Weather History Graph

Search for Another Location

Airport or City:

Astronomy

Aug. 09, 2019 Rise Set
Actual Time 6:08 AM EDT 8:06 PM EDT
Civil Twilight 5:39 AM EDT 8:35 PM EDT
Nautical Twilight 5:03 AM EDT 9:11 PM EDT
Astronomical Twilight 4:24 AM EDT 9:50 PM EDT
Moon 3:45 PM EDT (8/9) 1:04 AM EDT (8/9)
Length of Visible Light 14h 56m
Length of Day
13h 57m
Waxing Gibbous, 70% of the Moon is Illuminated
Aug 9
Waxing Gibbous
Aug 15
Full
Aug 23
Last Quarter
Aug 30
New
Sep 5
First Quarter

Hourly Weather History & Observations

Time (EDT) Temp. Heat Index Dew Point Humidity Pressure Visibility Wind Dir Wind Speed Gust Speed Precip Events Conditions
12:51 AM 71.1 °F - 69.1 °F 93% 29.75 in 10.0 mi WNW 3.5 mph - N/A   Clear
1:51 AM 72.0 °F - 69.1 °F 91% 29.76 in 10.0 mi West 5.8 mph - N/A   Mostly Cloudy
2:51 AM 72.0 °F - 68.0 °F 87% 29.77 in 10.0 mi WNW 5.8 mph - N/A   Mostly Cloudy
3:51 AM 71.1 °F - 66.0 °F 84% 29.76 in 10.0 mi WNW 4.6 mph - N/A   Scattered Clouds
4:51 AM 70.0 °F - 66.0 °F 87% 29.77 in 10.0 mi NW 5.8 mph - N/A   Clear
5:51 AM 69.1 °F - 64.9 °F 87% 29.78 in 10.0 mi WNW 5.8 mph - N/A   Clear
6:51 AM 70.0 °F - 64.9 °F 84% 29.80 in 10.0 mi WNW 4.6 mph - N/A   Clear
7:51 AM 73.9 °F - 66.9 °F 79% 29.80 in 10.0 mi NNW 4.6 mph - N/A   Clear
8:51 AM 78.1 °F - 68.0 °F 71% 29.81 in 10.0 mi WNW 3.5 mph - N/A   Clear
9:51 AM 81.0 °F 83.3 °F 66.9 °F 62% 29.81 in 10.0 mi Variable 3.5 mph - N/A   Clear
10:51 AM 82.9 °F 85.0 °F 66.0 °F 56% 29.81 in 10.0 mi SW 8.1 mph - N/A   Clear
11:51 AM 84.0 °F 85.4 °F 64.0 °F 51% 29.80 in 10.0 mi Variable 6.9 mph - N/A   Partly Cloudy
12:51 PM 86.0 °F 86.8 °F 63.0 °F 46% 29.79 in 10.0 mi WNW 12.7 mph 20.7 mph N/A   Clear
1:51 PM 88.0 °F 89.3 °F 64.0 °F 45% 29.78 in 10.0 mi WNW 11.5 mph - N/A   Partly Cloudy
2:51 PM 84.0 °F 84.0 °F 60.1 °F 44% 29.77 in 10.0 mi West 16.1 mph 23.0 mph N/A   Mostly Cloudy
3:51 PM 87.1 °F 87.0 °F 61.0 °F 41% 29.75 in 10.0 mi WNW 8.1 mph - N/A   Scattered Clouds
4:51 PM 87.1 °F 86.7 °F 60.1 °F 40% 29.75 in 10.0 mi NW 16.1 mph 23.0 mph N/A   Clear
5:51 PM 86.0 °F 85.7 °F 60.1 °F 41% 29.75 in 10.0 mi West 9.2 mph - N/A   Clear
6:51 PM 84.0 °F 83.5 °F 57.9 °F 41% 29.76 in 10.0 mi NW 8.1 mph - N/A   Clear
7:51 PM 81.0 °F 80.8 °F 55.9 °F 42% 29.78 in 10.0 mi WNW 6.9 mph - N/A   Clear
8:51 PM 75.0 °F - 59.0 °F 57% 29.79 in 10.0 mi NNW 6.9 mph - N/A   Clear
9:51 PM 75.9 °F - 60.1 °F 58% 29.82 in 10.0 mi NNW 3.5 mph - N/A   Partly Cloudy
10:51 PM 73.9 °F - 60.1 °F 62% 29.83 in 10.0 mi Calm Calm - N/A   Partly Cloudy
11:51 PM 70.0 °F - 61.0 °F 73% 29.83 in 10.0 mi NW 3.5 mph - N/A   Clear